NOO6341 RJKA-RJFU

Flight info

Callsign NOO6341
Flight time 0h 52m
Altitude 33000
Route RURIK Y532 HKC G339 OSTEP Y14 DGC Y204 OHGIE
Aircraft E145/M-SDFGIRW/S

Departure

Time 2026-04-26 01:13
Airport Amami Airport (RJKA)

Arrival

Time 2026-04-26 02:05
Airport Nagasaki Airport (RJFU)
Time Latitude Longitude Altitude Speed Heading
2026-04-26 00:45 28.43063 129.70880 23 ft 0 kts 296°
2026-04-26 01:06 28.43064 129.70879 23 ft 0 kts 296°
2026-04-26 01:06 28.43069 129.70877 23 ft 0 kts 356°
2026-04-26 01:07 28.43071 129.70882 23 ft 0 kts 69°
2026-04-26 01:07 28.43066 129.70889 23 ft 2 kts 125°
2026-04-26 01:07 28.43052 129.70914 22 ft 5 kts 123°
2026-04-26 01:07 28.43027 129.70967 21 ft 9 kts 116°
2026-04-26 01:08 28.43048 129.71037 20 ft 11 kts 26°
2026-04-26 01:08 28.43119 129.71075 21 ft 12 kts 26°
2026-04-26 01:08 28.43201 129.71121 21 ft 14 kts 25°
2026-04-26 01:08 28.43296 129.71173 21 ft 15 kts 26°
2026-04-26 01:09 28.43400 129.71231 20 ft 17 kts 25°
2026-04-26 01:09 28.43512 129.71292 20 ft 17 kts 26°
2026-04-26 01:09 28.43607 129.71346 20 ft 13 kts 26°
2026-04-26 01:09 28.43685 129.71388 20 ft 12 kts 26°
2026-04-26 01:10 28.43767 129.71433 20 ft 14 kts 26°
2026-04-26 01:10 28.43860 129.71483 20 ft 12 kts 26°
2026-04-26 01:10 28.43914 129.71515 19 ft 7 kts 35°
2026-04-26 01:10 28.43919 129.71578 19 ft 10 kts 114°
2026-04-26 01:11 28.43884 129.71654 17 ft 11 kts 116°
2026-04-26 01:11 28.43862 129.71693 16 ft 1 kts 172°
2026-04-26 01:11 28.43858 129.71690 16 ft 0 kts 205°
2026-04-26 01:12 28.43834 129.71678 16 ft 22 kts 205°
2026-04-26 01:12 28.43473 129.71480 17 ft 91 kts 205°
2026-04-26 01:12 28.42720 129.71063 28 ft 141 kts 208°
2026-04-26 01:12 28.41809 129.70541 310 ft 155 kts 208°
2026-04-26 01:13 28.40812 129.70018 881 ft 159 kts 199°
2026-04-26 01:13 28.39709 129.69975 1492 ft 165 kts 167°
2026-04-26 01:13 28.38688 129.70750 1676 ft 203 kts 129°
2026-04-26 01:13 28.38233 129.72392 1761 ft 243 kts 90°
2026-04-26 01:14 28.38778 129.74303 2163 ft 265 kts 52°
2026-04-26 01:14 28.40179 129.75540 3149 ft 260 kts 20°
2026-04-26 01:14 28.41873 129.76219 4043 ft 259 kts 25°
2026-04-26 01:14 28.43314 129.77467 4633 ft 268 kts 43°
2026-04-26 01:15 28.44634 129.78983 5278 ft 273 kts 46°
2026-04-26 01:15 28.45938 129.80563 5945 ft 277 kts 46°
2026-04-26 01:15 28.47260 129.82185 6581 ft 281 kts 46°
2026-04-26 01:15 28.48825 129.83437 7273 ft 278 kts 21°
2026-04-26 01:16 28.50610 129.84262 7969 ft 279 kts 20°
2026-04-26 01:16 28.52410 129.85101 8571 ft 283 kts 20°
2026-04-26 01:16 28.54227 129.85947 9217 ft 284 kts 20°
2026-04-26 01:16 28.56050 129.86795 9848 ft 286 kts 19°
2026-04-26 01:17 28.57908 129.87659 10382 ft 291 kts 19°
2026-04-26 01:17 28.59817 129.88547 10765 ft 302 kts 19°
2026-04-26 01:17 28.61809 129.89476 11173 ft 311 kts 18°
2026-04-26 01:17 28.63840 129.90420 11534 ft 322 kts 19°
2026-04-26 01:18 28.65949 129.91405 11905 ft 330 kts 18°
2026-04-26 01:18 28.68088 129.92403 12242 ft 339 kts 18°
2026-04-26 01:18 28.70281 129.93427 12727 ft 343 kts 17°
2026-04-26 01:18 28.72502 129.94463 13203 ft 347 kts 18°
2026-04-26 01:19 28.74733 129.95505 13654 ft 351 kts 17°
2026-04-26 01:19 28.77023 129.96573 14094 ft 355 kts 18°
2026-04-26 01:19 28.79326 129.97650 14500 ft 360 kts 18°
2026-04-26 01:19 28.81649 129.98737 14968 ft 361 kts 18°
2026-04-26 01:20 28.83969 129.99823 15332 ft 366 kts 18°
2026-04-26 01:20 28.86339 130.00931 15741 ft 370 kts 18°
2026-04-26 01:20 28.88760 130.02063 16124 ft 374 kts 18°
2026-04-26 01:20 28.91154 130.03185 16531 ft 377 kts 18°
2026-04-26 01:21 28.93596 130.04330 16970 ft 379 kts 18°
2026-04-26 01:21 28.96058 130.05484 17276 ft 385 kts 18°
2026-04-26 01:21 28.98548 130.06653 17649 ft 388 kts 18°
2026-04-26 01:21 29.01028 130.07817 18150 ft 387 kts 18°
2026-04-26 01:22 29.03540 130.08997 18552 ft 390 kts 18°
2026-04-26 01:22 29.06062 130.10184 18984 ft 391 kts 18°
2026-04-26 01:22 29.08574 130.11365 19379 ft 393 kts 18°
2026-04-26 01:22 29.11109 130.12556 19796 ft 394 kts 18°
2026-04-26 01:23 29.13644 130.13750 20185 ft 396 kts 18°
2026-04-26 01:23 29.16193 130.14952 20594 ft 397 kts 18°
2026-04-26 01:23 29.18758 130.16159 20954 ft 399 kts 18°
2026-04-26 01:23 29.21314 130.17364 21322 ft 401 kts 18°
2026-04-26 01:24 29.23906 130.18588 21795 ft 399 kts 19°
2026-04-26 01:24 29.26463 130.19795 22085 ft 403 kts 19°
2026-04-26 01:24 29.29083 130.21031 22466 ft 404 kts 19°
2026-04-26 01:24 29.31705 130.22108 22876 ft 401 kts 15°
2026-04-26 01:25 29.34189 130.23595 23277 ft 406 kts 32°
2026-04-26 01:25 29.36607 130.25255 23631 ft 406 kts 26°
2026-04-26 01:25 29.39103 130.26791 24002 ft 407 kts 25°
2026-04-26 01:25 29.41599 130.28285 24396 ft 407 kts 24°
2026-04-26 01:26 29.44138 130.29787 24697 ft 410 kts 25°
2026-04-26 01:26 29.46660 130.31279 25100 ft 409 kts 25°
2026-04-26 01:26 29.49176 130.32765 25503 ft 408 kts 24°
2026-04-26 01:26 29.51691 130.34250 25947 ft 406 kts 25°
2026-04-26 01:27 29.54239 130.35754 26248 ft 409 kts 24°
2026-04-26 01:27 29.56755 130.37241 26551 ft 411 kts 25°
2026-04-26 01:27 29.59277 130.38734 26951 ft 410 kts 25°
2026-04-26 01:27 29.61813 130.40234 27350 ft 409 kts 25°
2026-04-26 01:28 29.64355 130.41739 27683 ft 410 kts 26°
2026-04-26 01:28 29.66902 130.43249 28011 ft 410 kts 25°
2026-04-26 01:28 29.69429 130.44746 28389 ft 409 kts 26°
2026-04-26 01:28 29.71938 130.46236 28691 ft 411 kts 26°
2026-04-26 01:29 29.74505 130.47759 28947 ft 414 kts 26°
2026-04-26 01:29 29.77084 130.49291 28956 ft 425 kts 26°
2026-04-26 01:29 29.79772 130.50886 28964 ft 436 kts 26°
2026-04-26 01:29 29.82469 130.52492 28969 ft 446 kts 26°
2026-04-26 01:30 29.88117 130.55853 28963 ft 465 kts 27°
2026-04-26 01:30 29.93973 130.59341 28957 ft 482 kts 27°
2026-04-26 01:31 30.00025 130.62953 28957 ft 498 kts 26°
2026-04-26 01:31 30.06322 130.66717 28947 ft 512 kts 27°
2026-04-26 01:32 30.12717 130.70543 28931 ft 524 kts 26°
2026-04-26 01:32 30.19242 130.74455 28925 ft 533 kts 26°
2026-04-26 01:33 30.25849 130.78421 28927 ft 536 kts 26°
2026-04-26 01:33 30.32353 130.82332 28924 ft 516 kts 26°
2026-04-26 01:34 30.38659 130.86128 28931 ft 504 kts 26°
2026-04-26 01:34 30.44835 130.89851 28930 ft 498 kts 26°
2026-04-26 01:35 30.50952 130.93544 28938 ft 493 kts 26°
2026-04-26 01:35 30.57180 130.96832 28940 ft 485 kts 14°
2026-04-26 01:36 30.60415 130.97729 28942 ft 479 kts
2026-04-26 01:36 30.63700 130.98183 28946 ft 473 kts 357°
2026-04-26 01:36 30.66962 130.98131 28948 ft 464 kts 346°
2026-04-26 01:37 30.73133 130.96582 28955 ft 453 kts 338°
2026-04-26 01:37 30.79347 130.95137 28947 ft 456 kts 341°
2026-04-26 01:38 30.85600 130.93805 28955 ft 458 kts 340°
2026-04-26 01:38 30.91938 130.92464 28952 ft 463 kts 340°
2026-04-26 01:39 30.98311 130.91113 28950 ft 467 kts 340°
2026-04-26 01:39 31.04761 130.89745 28960 ft 471 kts 340°
2026-04-26 01:40 31.11245 130.88367 28956 ft 474 kts 340°
2026-04-26 01:40 31.17733 130.86987 28964 ft 475 kts 340°
2026-04-26 01:41 31.24269 130.85594 28955 ft 477 kts 340°
2026-04-26 01:41 31.30784 130.84206 28964 ft 478 kts 339°
2026-04-26 01:42 31.37138 130.82178 28567 ft 466 kts 325°
2026-04-26 01:42 31.39996 130.80482 28187 ft 451 kts 317°
2026-04-26 01:42 31.42547 130.78491 27821 ft 446 kts 314°
2026-04-26 01:42 31.45178 130.76498 27452 ft 446 kts 315°
2026-04-26 01:43 31.47779 130.74562 27079 ft 446 kts 316°
2026-04-26 01:43 31.50413 130.72610 26706 ft 445 kts 316°
2026-04-26 01:43 31.52993 130.70703 26337 ft 444 kts 316°
2026-04-26 01:43 31.55629 130.68753 25851 ft 440 kts 317°
2026-04-26 01:44 31.58150 130.66890 25362 ft 429 kts 317°
2026-04-26 01:44 31.60674 130.65019 24859 ft 419 kts 317°
2026-04-26 01:44 31.63084 130.63234 24370 ft 410 kts 317°
2026-04-26 01:44 31.65470 130.61464 23872 ft 402 kts 317°
2026-04-26 01:45 31.67821 130.59718 23303 ft 396 kts 318°
2026-04-26 01:45 31.70160 130.58072 22686 ft 399 kts 324°
2026-04-26 01:45 31.72712 130.56705 22066 ft 397 kts 327°
2026-04-26 01:45 31.75202 130.55376 21446 ft 391 kts 327°
2026-04-26 01:46 31.77645 130.54069 20821 ft 384 kts 328°
2026-04-26 01:46 31.80056 130.52780 20203 ft 377 kts 328°
2026-04-26 01:46 31.82407 130.51521 19586 ft 371 kts 329°
2026-04-26 01:46 31.84730 130.50278 18969 ft 365 kts 329°
2026-04-26 01:47 31.87006 130.49057 18442 ft 356 kts 329°
2026-04-26 01:47 31.89258 130.47852 17945 ft 348 kts 329°
2026-04-26 01:47 31.91440 130.46678 17457 ft 341 kts 330°
2026-04-26 01:47 31.93575 130.45532 16962 ft 335 kts 330°
2026-04-26 01:48 31.95670 130.44408 16472 ft 330 kts 330°
2026-04-26 01:48 31.97731 130.43300 15989 ft 325 kts 331°
2026-04-26 01:48 31.99777 130.42201 15456 ft 317 kts 331°
2026-04-26 01:48 32.01751 130.41139 14844 ft 304 kts 331°
2026-04-26 01:49 32.03632 130.40128 14233 ft 294 kts 332°
2026-04-26 01:49 32.05453 130.39146 13661 ft 289 kts 332°
2026-04-26 01:49 32.07288 130.38156 13067 ft 294 kts 332°
2026-04-26 01:49 32.09174 130.37140 12446 ft 299 kts 333°
2026-04-26 01:50 32.11074 130.36116 11912 ft 300 kts 334°
2026-04-26 01:50 32.12966 130.35097 11422 ft 299 kts 334°
2026-04-26 01:50 32.14865 130.34071 10935 ft 299 kts 333°
2026-04-26 01:50 32.16759 130.33049 10454 ft 303 kts 334°
2026-04-26 01:51 32.18661 130.32022 10083 ft 297 kts 334°
2026-04-26 01:51 32.20549 130.31003 9703 ft 293 kts 334°
2026-04-26 01:51 32.22380 130.30013 9337 ft 289 kts 334°
2026-04-26 01:51 32.24200 130.29028 8961 ft 286 kts 334°
2026-04-26 01:52 32.26005 130.28052 8593 ft 283 kts 334°
2026-04-26 01:52 32.27795 130.27083 8226 ft 281 kts 334°
2026-04-26 01:52 32.29547 130.26134 7966 ft 274 kts 335°
2026-04-26 01:52 32.31237 130.25218 7940 ft 263 kts 335°
2026-04-26 01:53 32.32887 130.24324 7947 ft 257 kts 335°
2026-04-26 01:53 32.34512 130.23444 7951 ft 253 kts 335°
2026-04-26 01:53 32.36124 130.22568 7966 ft 257 kts 335°
2026-04-26 01:53 32.37751 130.21686 7960 ft 258 kts 335°
2026-04-26 01:54 32.39397 130.20793 7959 ft 256 kts 335°
2026-04-26 01:54 32.41021 130.19911 7779 ft 261 kts 335°
2026-04-26 01:54 32.42679 130.19009 7283 ft 267 kts 335°
2026-04-26 01:54 32.44398 130.18076 6788 ft 272 kts 335°
2026-04-26 01:55 32.46109 130.17146 6307 ft 276 kts 335°
2026-04-26 01:55 32.47864 130.16203 5860 ft 277 kts 339°
2026-04-26 01:55 32.49701 130.15565 5626 ft 269 kts 346°
2026-04-26 01:55 32.51484 130.14998 5374 ft 263 kts 346°
2026-04-26 01:56 32.53245 130.14438 5116 ft 257 kts 347°
2026-04-26 01:56 32.54949 130.13895 4874 ft 254 kts 347°
2026-04-26 01:56 32.56665 130.13348 4754 ft 258 kts 347°
2026-04-26 01:56 32.58419 130.12788 4623 ft 258 kts 347°
2026-04-26 01:57 32.60115 130.12248 4490 ft 248 kts 347°
2026-04-26 01:57 32.61767 130.11722 4354 ft 239 kts 347°
2026-04-26 01:57 32.63342 130.11218 4218 ft 231 kts 347°
2026-04-26 01:57 32.64872 130.10730 4087 ft 224 kts 347°
2026-04-26 01:58 32.66352 130.10251 3958 ft 217 kts 348°
2026-04-26 01:58 32.67793 130.09779 3830 ft 211 kts 347°
2026-04-26 01:58 32.69184 130.09328 3699 ft 205 kts 347°
2026-04-26 01:58 32.70569 130.08872 3569 ft 204 kts 347°
2026-04-26 01:59 32.71891 130.08432 3502 ft 196 kts 347°
2026-04-26 01:59 32.73210 130.07988 3379 ft 194 kts 347°
2026-04-26 01:59 32.74491 130.07548 3238 ft 185 kts 348°
2026-04-26 01:59 32.75727 130.07123 3120 ft 186 kts 347°
2026-04-26 02:00 32.76968 130.06692 3003 ft 186 kts 343°
2026-04-26 02:00 32.78019 130.05826 2980 ft 185 kts 320°
2026-04-26 02:00 32.78988 130.04803 2975 ft 187 kts 321°
2026-04-26 02:00 32.79975 130.03763 2792 ft 187 kts 321°
2026-04-26 02:01 32.80891 130.02789 2589 ft 162 kts 321°
2026-04-26 02:01 32.81683 130.01952 2365 ft 147 kts 322°
2026-04-26 02:01 32.82474 130.01117 2196 ft 157 kts 322°
2026-04-26 02:01 32.83300 130.00243 2001 ft 155 kts 321°
2026-04-26 02:02 32.84084 129.99411 1781 ft 149 kts 322°
2026-04-26 02:02 32.84846 129.98605 1574 ft 144 kts 322°
2026-04-26 02:02 32.85577 129.97830 1383 ft 139 kts 321°
2026-04-26 02:02 32.86301 129.97064 1190 ft 137 kts 320°
2026-04-26 02:03 32.86997 129.96324 1013 ft 134 kts 320°
2026-04-26 02:03 32.87686 129.95596 833 ft 129 kts 319°
2026-04-26 02:03 32.88340 129.94902 649 ft 126 kts 321°
2026-04-26 02:03 32.89003 129.94212 470 ft 125 kts 320°
2026-04-26 02:04 32.89651 129.93517 331 ft 125 kts 319°
2026-04-26 02:04 32.90294 129.92816 164 ft 127 kts 320°
2026-04-26 02:04 32.90963 129.92123 26 ft 125 kts 319°
2026-04-26 02:04 32.91540 129.91511 9 ft 94 kts 318°
2026-04-26 02:05 32.91914 129.91113 9 ft 48 kts 317°
2026-04-26 02:05 32.92127 129.90887 9 ft 34 kts 317°
2026-04-26 02:05 32.92283 129.90720 9 ft 22 kts 314°
2026-04-26 02:05 32.92374 129.90666 9 ft 14 kts 25°
2026-04-26 02:06 32.92446 129.90756 9 ft 15 kts 66°
2026-04-26 02:06 32.92398 129.90869 9 ft 17 kts 138°
2026-04-26 02:06 32.92304 129.90970 9 ft 19 kts 137°
2026-04-26 02:06 32.92200 129.91081 9 ft 20 kts 138°
2026-04-26 02:07 32.92088 129.91200 9 ft 22 kts 137°
2026-04-26 02:07 32.91965 129.91330 9 ft 24 kts 139°
2026-04-26 02:07 32.91846 129.91458 9 ft 18 kts 140°
2026-04-26 02:07 32.91748 129.91566 9 ft 20 kts 139°
2026-04-26 02:08 32.91639 129.91679 9 ft 21 kts 138°
2026-04-26 02:08 32.91525 129.91801 9 ft 22 kts 138°
2026-04-26 02:08 32.91424 129.91911 9 ft 6 kts 129°
2026-04-26 02:08 32.91444 129.91942 9 ft 6 kts 38°
2026-04-26 02:09 32.91481 129.91988 9 ft 8 kts 48°
2026-04-26 02:09 32.91513 129.92029 10 ft 4 kts 48°
2026-04-26 02:09 32.91519 129.92036 10 ft 0 kts 48°